SID,Date,Time,pH,Iron,Mn,Color,Turbidity,Analyst
45279,01/01/2010,"1130      ",5.90,0.12,0.000,34,0.29,"TL                                                "
45280,01/02/2010,"1200      ",6.06,0.10,0.100,35,0.34,"SBK                                               "
45281,01/03/2010,"1205      ",5.99,0.11,0.000,30,0.30,"TL                                                "
45282,01/04/2010,"940       ",6.00,0.11,0.100,31,0.51,"DF                                                "
45283,01/05/2010,"1217      ",5.96,0.11,0.100,30,0.30,"MT                                                "
45284,01/06/2010,"1007      ",6.09,0.11,0.200,32,0.30,"MT                                                "
45285,01/07/2010,"1115      ",5.90,0.12,0.200,29,0.31,"mt                                                "
45286,01/08/2010,"1029      ",5.97,0.11,0.000,33,0.26,"TL                                                "
45287,01/09/2010,"1020      ",6.00,0.10,0.200,30,0.30,"TL                                                "
45288,01/10/2010,"1019      ",6.01,0.14,0.100,27,0.27,"TL                                                "
45289,01/11/2010,"1110      ",5.97,0.12,0.200,29,0.28,"TCF                                               "
45290,01/12/2010,"1030      ",6.00,0.12,0.200,30,0.26,"JF                                                "
45291,01/13/2010,"955       ",6.01,0.14,0.200,27,0.25,"JF                                                "
45292,01/14/2010,"955       ",6.04,0.12,0.100,28,0.24,"jf                                                "
45293,01/15/2010,"1030      ",6.06,0.12,0.000,25,0.32,"tl                                                "
45294,01/16/2010,"1040      ",6.02,0.15,0.200,27,0.27,"TL                                                "
45295,01/17/2010,"1040      ",6.00,0.13,0.100,29,0.27,"TL                                                "
45296,01/18/2010,"1100      ",6.07,0.11,0.200,32,0.36,"TL                                                "
45297,01/19/2010,"1100      ",6.08,0.12,0.100,36,0.34,"DF                                                "
45298,01/20/2010,"1015      ",6.02,0.12,0.100,32,0.33,"mt                                                "
45299,01/21/2010,"1112      ",6.07,0.10,0.400,34,0.27,"mt                                                "
45300,01/22/2010,"907       ",6.09,0.15,0.300,30,0.25,"tl                                                "
45301,01/23/2010,"1009      ",6.11,0.11,0.100,34,0.30,"tl                                                "
45302,01/24/2010,"1110      ",6.02,0.13,0.200,32,0.32,"tl                                                "
45303,01/25/2010,"945       ",5.99,0.11,0.300,27,0.28,"TCF                                               "
45304,01/26/2010,"1010      ",6.01,0.11,0.300,29,0.30,"JF                                                "
45305,01/27/2010,"1035      ",6.00,0.12,0.200,27,0.28,"JF                                                "
45306,01/28/2010,"1000      ",5.99,0.11,0.300,28,0.28,"JF                                                "
45307,01/29/2010,"1015      ",5.99,0.11,0.100,32,0.27,"TL                                                "
45308,01/30/2010,"830       ",6.09,0.10,0.200,27,0.25,"TL                                                "
45309,01/31/2010,"1135      ",6.00,0.10,0.200,30,0.29,"TL                                                "
45310,02/01/2010,"1025      ",6.08,0.10,0.300,26,0.24,"TCF                                               "
45311,02/02/2010,"845       ",6.04,0.11,0.300,27,0.26,"JF                                                "
45312,02/03/2010,"955       ",5.96,0.11,0.200,27,0.27,"jf                                                "
45313,02/04/2010,"1000      ",6.01,0.11,0.300,26,0.29,"JF                                                "
45314,02/05/2010,"1100      ",6.02,0.11,0.100,29,0.30,"tl                                                "
45315,02/06/2010,"1015      ",6.03,0.10,0.200,27,0.29,"tl                                                "
45316,02/07/2010,"1110      ",6.07,0.12,0.200,30,0.32,"tl                                                "
45317,02/08/2010,"1015      ",5.96,0.12,0.200,29,0.27,"JF                                                "
45318,02/09/2010,"1020      ",5.95,0.12,0.100,28,0.24,"TCF                                               "
45319,02/10/2010,"1350      ",6.07,0.14,0.300,36,0.37,"JF                                                "
45320,02/11/2010,"1050      ",6.02,0.11,0.100,25,0.26,"DF                                                "
45321,02/12/2010,"1145      ",6.00,0.10,0.200,26,0.27,"TL                                                "
45322,02/13/2010,"1055      ",6.01,0.12,0.200,25,0.30,"tl                                                "
45323,02/14/2010,"1006      ",6.03,0.13,0.200,30,0.28,"TF                                                "
45324,02/15/2010,"905       ",6.11,0.14,0.100,24,0.33,"TCF                                               "
45325,02/16/2010,"1000      ",6.16,0.13,0.200,24,0.23,"TCF                                               "
45326,02/17/2010,"1050      ",6.23,0.15,0.200,30,0.23,"MT                                                "
45327,02/18/2010,"1110      ",6.15,0.10,0.200,28,0.30,"MT                                                "
45328,02/19/2010,"1055      ",6.03,0.12,0.200,27,0.24,"TL                                                "
45329,02/20/2010,"1135      ",6.00,0.14,0.300,29,0.27,"TL                                                "
45330,02/21/2010,"945       ",6.04,0.10,0.100,25,0.27,"TL                                                "
45331,02/22/2010,"1015      ",5.97,0.12,0.300,21,0.25,"TCF                                               "
45332,02/23/2010,"940       ",6.01,0.12,0.200,24,0.24,"JF                                                "
45333,02/24/2010,"1235      ",6.02,0.12,0.200,25,0.25,"JF                                                "
45334,02/25/2010,"1025      ",6.00,0.12,0.300,24,0.26,"jf                                                "
45335,02/26/2010,"1120      ",6.09,0.15,0.200,26,0.24,"tl                                                "
45336,02/27/2010,"1112      ",6.05,0.13,0.200,27,0.27,"tl                                                "
45337,02/28/2010,"1140      ",6.00,0.12,0.300,25,0.23,"TL                                                "
45338,03/01/2010,"1048      ",6.12,0.10,0.200,19,0.45,"TF                                                "
45339,03/02/2010,"1004      ",6.03,0.12,0.400,24,0.26,"TF                                                "
45340,03/03/2010,"1030      ",6.09,0.08,0.400,20,0.44,"mt                                                "
45341,03/04/2010,"810       ",6.09,0.10,0.200,16,0.33,"mt                                                "
45342,03/05/2010,"1205      ",6.07,0.11,0.200,25,0.29,"TL                                                "
45343,03/06/2010,"1142      ",6.10,0.09,0.010,27,0.27,"TL                                                "
45344,03/07/2010,"1101      ",6.02,0.11,0.200,24,0.24,"TL                                                "
45345,03/08/2010,"1020      ",6.16,0.12,0.100,23,0.30,"TCF                                               "
45346,03/09/2010,"930       ",6.08,0.12,0.200,24,0.28,"JF                                                "
45347,03/10/2010,"920       ",6.11,0.11,0.100,24,0.29,"JF                                                "
45348,03/11/2010,"900       ",6.05,0.11,0.200,24,0.23,"JF                                                "
45349,03/12/2010,"1245      ",6.00,0.10,0.200,24,0.27,"TL                                                "
45350,03/13/2010,"1310      ",6.05,0.12,0.100,24,0.27,"TL                                                "
45351,03/14/2010,"1240      ",6.00,0.09,0.300,24,0.28,"TML                                               "
45352,03/15/2010,"1210      ",6.18,0.12,0.300,21,0.28,"TCF                                               "
45353,03/16/2010,"950       ",6.08,0.11,0.200,24,0.27,"JF                                                "
45354,03/17/2010,"930       ",6.11,0.12,0.300,26,0.29,"JF                                                "
45355,03/18/2010,"925       ",6.06,0.12,0.300,22,0.29,"JF                                                "
45356,03/19/2010,"1210      ",6.00,0.12,0.200,22,0.29,"TL                                                "
45357,03/20/2010,"949       ",6.02,0.11,0.100,22,0.37,"TL                                                "
45358,03/21/2010,"1055      ",6.07,0.10,0.100,25,0.40,"TL                                                "
45359,03/22/2010,"1045      ",5.94,0.12,0.200,24,0.44,"TCF                                               "
45360,03/23/2010,"1020      ",6.10,0.12,0.200,21,0.49,"TCF                                               "
45361,03/24/2010,"830       ",6.15,0.12,0.100,23,0.56,"JF                                                "
45362,03/25/2010,"800       ",6.11,0.14,0.100,25,0.54,"JF                                                "
45363,03/26/2010,"915       ",6.09,0.12,0.100,27,0.56,"tl                                                "
45364,03/27/2010,"1130      ",6.12,0.12,0.200,28,0.55,"TL                                                "
45365,03/28/2010,"1015      ",6.15,0.11,0.100,22,0.59,"TL                                                "
45366,03/29/2010,"1110      ",6.22,0.12,0.200,24,0.54,"TCF                                               "
45367,03/30/2010,"800       ",6.16,0.12,0.200,28,0.62,"DF                                                "
45368,03/31/2010,"1030      ",6.15,0.13,0.200,28,0.63,"DF                                                "
45369,04/01/2010,"800       ",5.90,0.12,0.100,24,0.61,"JF                                                "
45370,04/02/2010,"945       ",5.95,0.12,0.200,29,0.54,"mt                                                "
45371,04/03/2010,"1022      ",6.10,0.11,0.100,22,0.56,"TF                                                "
45372,04/04/2010,"901       ",6.07,0.09,0.100,22,0.58,"TF                                                "
45373,04/05/2010,"1030      ",6.11,0.11,0.200,20,0.58,"TCF                                               "
45374,04/06/2010,"930       ",5.95,0.12,0.100,21,0.57,"JF                                                "
45375,04/07/2010,"1015      ",6.08,0.11,0.200,19,0.67,"DF                                                "
45376,04/08/2010,"920       ",6.01,0.12,0.200,20,0.59,"JF                                                "
45377,04/09/2010,"1039      ",6.16,0.12,0.100,25,0.51,"tl                                                "
45378,04/10/2010,"1005      ",6.09,0.15,0.200,16,0.48,"tl                                                "
45379,04/11/2010,"1052      ",6.05,0.13,0.200,23,0.50,"TL                                                "
45380,04/12/2010,"1120      ",6.09,0.12,0.200,13,0.41,"TCF                                               "
45381,04/13/2010,"1025      ",6.06,0.13,0.200,26,0.51,"JF                                                "
45382,04/14/2010,"955       ",6.03,0.12,0.200,24,0.49,"JF                                                "
45383,04/15/2010,"905       ",6.05,0.12,0.200,25,0.51,"JF                                                "
45384,04/16/2010,"1045      ",6.12,0.15,0.200,23,0.52,"TL                                                "
45385,04/17/2010,"940       ",6.07,0.12,0.100,19,0.31,"TL                                                "
45386,04/18/2010,"1030      ",6.07,0.11,0.100,19,0.30,"TL                                                "
45387,04/19/2010,"745       ",6.02,0.12,0.200,23,0.29,"DF                                                "
45388,04/20/2010,"800       ",6.04,0.12,0.200,22,0.31,"JF                                                "
45389,04/21/2010,"855       ",6.01,0.13,0.100,22,0.28,"JF                                                "
45390,04/22/2010,"905       ",6.02,0.12,0.200,23,0.29,"JF                                                "
45391,04/23/2010,"903       ",6.09,0.13,0.100,17,0.32,"tl                                                "
45392,04/24/2010,"1150      ",6.12,0.14,0.200,13,0.28,"TL                                                "
45393,04/25/2010,"935       ",5.99,0.12,0.100,20,0.28,"TL                                                "
45394,04/26/2010,"1145      ",6.02,0.14,0.200,16,0.28,"TCF                                               "
45395,04/27/2010,"905       ",6.07,0.14,0.100,17,0.29,"JF                                                "
45396,04/28/2010,"900       ",6.04,0.13,0.200,17,0.29,"JF                                                "
45397,04/29/2010,"930       ",5.91,0.10,0.200,25,0.27,"DF                                                "
45398,04/30/2010,"1200      ",6.07,0.10,0.200,19,0.30,"tl                                                "
45399,05/01/2010,"1020      ",6.01,0.14,0.200,20,0.29,"JF                                                "
45400,05/02/2010,"1025      ",5.98,0.10,0.200,22,0.29,"TF                                                "
45401,05/03/2010,"1225      ",6.13,0.14,0.200,23,0.36,"TCF                                               "
45402,05/04/2010,"945       ",6.11,0.42,0.300,33,1.94,"DF                                                "
45403,05/05/2010,"750       ",6.39,0.15,0.300,18,0.58,"DF                                                "
45404,05/06/2010,"940       ",6.12,0.17,0.400,25,0.38,"DF                                                "
45405,05/07/2010,"1330      ",6.14,0.19,0.100,23,0.60,"TL                                                "
45406,05/08/2010,"1325      ",6.11,0.17,0.200,29,0.40,"tl                                                "
45407,05/09/2010,"955       ",6.19,0.16,0.100,33,0.29,"tl                                                "
45408,05/10/2010,"1155      ",6.16,0.16,0.200,34,0.30,"TCF                                               "
45409,05/11/2010,"935       ",6.14,0.17,0.100,34,0.29,"JF                                                "
45410,05/12/2010,"900       ",6.14,0.17,0.100,37,0.51,"JF                                                "
45411,05/13/2010,"920       ",6.12,0.16,0.100,39,0.44,"JF                                                "
45412,05/14/2010,"1050      ",6.02,0.15,0.100,39,0.34,"tl                                                "
45413,05/15/2010,"950       ",6.09,0.20,0.200,42,0.42,"TL                                                "
45414,05/16/2010,"1050      ",6.06,0.21,0.300,41,0.41,"tl                                                "
45415,05/17/2010,"1125      ",6.20,0.17,0.300,39,0.35,"TCF                                               "
45416,05/18/2010,"900       ",6.17,0.16,0.100,45,0.65,"JF                                                "
45417,05/19/2010,"915       ",6.19,0.16,0.200,44,0.52,"JF                                                "
45418,05/20/2010,"1000      ",6.20,0.14,0.200,46,0.34,"mt                                                "
45419,05/21/2010,"1135      ",6.12,0.19,0.200,45,0.41,"tl                                                "
45420,05/22/2010,"1000      ",6.07,0.16,0.100,52,0.38,"tl                                                "
45421,05/23/2010,"1235      ",6.24,0.15,0.300,40,0.49,"TL                                                "
45422,05/24/2010,"1130      ",6.23,0.16,0.200,45,0.39,"TCF                                               "
45423,05/25/2010,"930       ",6.25,0.16,0.200,47,0.41,"JF                                                "
45424,05/26/2010,"855       ",6.18,0.16,0.200,51,0.40,"JF                                                "
45425,05/27/2010,"910       ",6.09,0.15,0.300,52,0.44,"JF                                                "
45426,05/28/2010,"1037      ",6.12,0.17,0.200,50,0.41,"TL                                                "
45427,05/29/2010,"900       ",6.19,0.02,0.100,55,0.43,"TL                                                "
45428,05/30/2010,"950       ",6.12,0.16,0.300,57,0.40,"TL                                                "
45429,05/31/2010,"735       ",6.14,0.16,0.300,56,0.40,"JF                                                "
45430,06/01/2010,"845       ",6.17,0.16,0.100,66,0.47,"DF                                                "
45431,06/02/2010,"920       ",6.08,0.16,0.200,52,0.41,"JF                                                "
45432,06/03/2010,"835       ",6.11,0.18,0.100,54,0.36,"JF                                                "
45433,06/04/2010,"1100      ",6.15,0.15,0.200,51,0.38,"TL                                                "
45434,06/05/2010,"1100      ",6.10,0.17,0.300,57,0.46,"TL                                                "
45435,06/06/2010,"1010      ",6.13,0.18,0.100,55,0.38,"tl                                                "
45436,06/07/2010,"1055      ",6.14,0.19,0.100,56,0.40,"TCF                                               "
45437,06/08/2010,"740       ",6.12,0.18,0.100,57,0.42,"JF                                                "
45438,06/09/2010,"910       ",6.14,0.17,0.100,59,0.49,"JF                                                "
45439,06/10/2010,"905       ",6.11,0.17,0.200,58,0.47,"JF                                                "
45440,06/11/2010,"1000      ",6.09,0.17,0.200,61,0.47,"tl                                                "
45441,06/12/2010,"1040      ",6.15,0.19,0.100,60,0.39,"tf                                                "
45442,06/13/2010,"1130      ",6.12,0.17,0.100,65,0.37,"TL                                                "
45443,06/14/2010,"1210      ",6.13,0.15,0.100,71,0.45,"TCF                                               "
45444,06/15/2010,"940       ",6.26,0.19,0.200,68,0.37,"DF                                                "
45445,06/16/2010,"1010      ",6.12,0.18,0.200,69,0.38,"JF                                                "
45446,06/17/2010,"1100      ",6.28,0.19,0.200,68,0.37,"TCF                                               "
45447,06/18/2010,"1015      ",6.15,0.18,0.200,67,0.37,"tl                                                "
45448,06/19/2010,"1030      ",6.05,0.17,0.100,65,0.43,"TL                                                "
45449,06/20/2010,"900       ",6.12,0.15,0.100,69,0.36,"TL                                                "
45450,06/21/2010,"905       ",6.25,0.21,0.200,68,0.35,"TCF                                               "
45451,06/22/2010,"930       ",6.18,0.18,0.200,69,0.36,"JF                                                "
45452,06/23/2010,"535       ",6.19,0.19,0.100,60,0.44,"sbk                                               "
45453,06/24/2010,"930       ",6.21,0.19,0.100,64,0.40,"JF                                                "
45454,06/25/2010,"1152      ",6.19,0.17,0.100,65,0.43,"TL                                                "
45455,06/26/2010,"1025      ",6.09,0.17,0.200,62,0.37,"TL                                                "
45456,06/27/2010,"1030      ",6.15,0.19,0.100,64,0.45,"TL                                                "
45457,06/28/2010,"915       ",6.06,0.19,0.100,58,0.39,"TCF                                               "
45458,06/29/2010,"900       ",6.80,0.23,0.200,67,0.38,"DF                                                "
45459,06/30/2010,"910       ",6.37,0.19,0.200,62,0.35,"DF                                                "
45460,07/01/2010,"1040      ",6.11,0.20,0.100,64,0.44,"JF                                                "
45461,07/02/2010,"1140      ",6.12,0.19,0.200,57,0.40,"TL                                                "
45462,07/03/2010,"1035      ",6.20,0.20,0.400,61,0.41,"DF                                                "
45463,07/04/2010,"925       ",6.34,0.21,0.200,61,0.40,"TCF                                               "
45464,07/05/2010,"615       ",6.17,0.21,0.100,59,0.45,"DF                                                "
45465,07/06/2010,"655       ",6.48,0.20,0.300,59,0.46,"DF                                                "
45466,07/07/2010,"920       ",6.37,0.20,0.200,62,0.42,"JF                                                "
45467,07/08/2010,"845       ",6.30,0.21,0.100,62,0.49,"JF                                                "
45468,07/09/2010,"945       ",6.35,0.21,0.200,62,0.52,"TL                                                "
45469,07/10/2010,"1039      ",6.29,0.22,0.300,59,0.60,"TL                                                "
45470,07/11/2010,"947       ",6.00,0.19,0.200,60,0.50,"TL                                                "
45471,07/12/2010,"920       ",6.28,0.20,0.200,40,1.82,"SBK                                               "
45472,07/13/2010,"930       ",5.80,0.24,0.100,51,0.52,"SBK                                               "
45473,07/14/2010,"930       ",6.25,0.22,0.200,59,0.37,"tl                                                "
45474,07/15/2010,"1040      ",6.18,0.21,0.200,57,0.41,"JF                                                "
45475,07/16/2010,"1020      ",6.22,0.20,0.100,55,0.37,"TL                                                "
45476,07/17/2010,"1205      ",6.11,0.21,0.200,59,0.39,"TL                                                "
45477,07/18/2010,"1036      ",6.10,0.19,0.100,50,0.35,"tl                                                "
45478,07/19/2010,"1050      ",6.15,0.22,0.200,52,0.37,"TCF                                               "
45479,07/20/2010,"920       ",6.11,0.21,0.200,54,0.36,"JF                                                "
45480,07/21/2010,"920       ",6.14,0.21,0.200,52,0.37,"JF                                                "
45481,07/22/2010,"1020      ",6.12,0.22,0.100,51,0.37,"JF                                                "
45482,07/23/2010,"1110      ",6.21,0.20,0.100,45,0.37,"tl                                                "
45483,07/24/2010,"1010      ",6.10,0.21,0.200,45,0.39,"TL                                                "
45484,07/25/2010,"1112      ",6.00,0.22,0.200,47,0.44,"TL                                                "
45485,07/26/2010,"935       ",6.25,0.20,0.200,44,0.34,"TCF                                               "
45486,07/27/2010,"945       ",6.12,0.21,0.200,45,0.38,"JF                                                "
45487,07/28/2010,"910       ",6.07,0.20,0.100,40,0.36,"TL                                                "
45488,07/29/2010,"950       ",6.19,0.19,0.200,44,0.36,"TL                                                "
45489,07/30/2010,"13.09     ",6.10,0.20,0.100,42,0.39,"TL                                                "
45490,07/31/2010,"1122      ",6.02,0.19,0.100,35,0.31,"TL                                                "
45491,08/01/2010,"1015      ",6.12,0.19,0.200,39,0.36,"TL                                                "
45492,08/02/2010,"950       ",5.95,0.16,0.100,42,1.57,"SBK                                               "
45493,08/03/2010,"905       ",6.06,0.17,0.100,40,0.33,"JF                                                "
45494,08/04/2010,"940       ",6.04,0.16,0.100,41,0.36,"JF                                                "
45495,08/05/2010,"920       ",6.07,0.15,0.200,41,0.36,"JF                                                "
45496,08/06/2010,"945       ",6.10,0.17,0.100,30,0.30,"TL                                                "
45497,08/07/2010,"1220      ",6.02,0.15,0.100,36,0.35,"TL                                                "
45498,08/08/2010,"1045      ",6.19,0.16,0.200,31,0.33,"tl                                                "
45499,08/09/2010,"915       ",6.28,0.18,0.200,27,0.30,"TCF                                               "